Flag for U.S.A. Weather past 2 weeks in Oberlin, Ohio, U.S.A.

Now
28 °F

Overcast.


Feels Like: 28 °F
Forecast: 25 / 33 °F
Wind: No wind

Location: Lorain County Regional Airport

Current Time: Dec 20, 2014 at 8:07:57 AM

Latest Report: Dec 20, 2014 at 6:53 AM


Visibility: 10 mi

Pressure: 30.32 "Hg

Humidity: 78%

Dew point: 22 °F

Location of OberlinLocation

Historic Weather in Oberlin — Graph

°F

Oberlin temperature yesterday

Maximum temperature yesterday: 30 °F (at 11:53 AM)
Minimum temperature yesterday: 28 °F (at 6:53 AM)
Average temperature yesterday: 29 °F

Past Weeks' High & Low Weather Summary

 TemperatureHumidityPressure
High52 °F (Dec 15, 2:53 PM)100% (Dec 6, 12:53 AM)30.69 "Hg (Dec 6, 12:53 AM)
Low21 °F (Dec 11, 7:53 AM)37% (Dec 8, 1:53 PM)29.71 "Hg (Dec 16, 7:53 AM)
Average35 °F81%30.18 "Hg
* Reported Dec 5 5:53 AM — Dec 20 5:53 AM, Oberlin, Weather by CustomWeather, © 2014

Note: Actual official high and low records may vary slightly from our data, if they occured in-between our weather recording intervals... More about our weather records

Advertising

Oberlin weather history for previous 24 hours

 ConditionsComfort  
Time TempWeatherWind HumidityBarometerVisibility
5:53 AM
Dec 20
28 °FOvercast.No wind75%30.32 "Hg10 mi
4:53 AM28 °FOvercast.5 mph75%30.32 "Hg10 mi
3:53 AM29 °FOvercast.No wind72%30.31 "Hg10 mi
2:53 AM28 °FOvercast.5 mph78%30.31 "Hg10 mi
1:53 AM28 °FOvercast.6 mph75%30.30 "Hg10 mi
12:53 AM29 °FOvercast.No wind75%30.30 "Hg10 mi
11:53 PM
Dec 19
29 °FOvercast.No wind75%30.30 "Hg10 mi
10:53 PM29 °FOvercast.No wind75%30.31 "Hg10 mi
9:53 PM29 °FOvercast.3 mph75%30.31 "Hg10 mi
8:53 PM29 °FOvercast.6 mph79%30.32 "Hg10 mi
7:53 PM29 °FOvercast.5 mph75%30.35 "Hg10 mi
6:53 PM29 °FOvercast.5 mph75%30.34 "Hg10 mi
5:53 PM29 °FOvercast.5 mph75%30.31 "Hg10 mi
4:53 PM29 °FOvercast.3 mph72%30.29 "Hg10 mi
3:53 PM30 °FOvercast.5 mph75%30.29 "Hg10 mi
2:53 PM30 °FMore clouds than sun.6 mph75%30.27 "Hg10 mi
1:53 PM30 °FOvercast.8 mph75%30.27 "Hg10 mi
12:53 PM30 °FOvercast.8 mph79%30.27 "Hg10 mi
11:53 AM30 °FOvercast.6 mph75%30.28 "Hg10 mi
10:53 AM29 °FOvercast.3 mph89%30.28 "Hg10 mi
9:53 AM28 °FOvercast.6 mph93%30.28 "Hg10 mi
8:53 AM28 °FIce fog.7 mph96%30.28 "Hg6 mi
Weather by CustomWeather, © 2014

See weather overviewHow to use our weather pages